TimeAKST,TemperatureF,Dew PointF,Humidity,Sea Level PressureIn,VisibilityMPH,Wind Direction,Wind SpeedMPH,Gust SpeedMPH,PrecipitationIn,Events,Conditions,WindDirDegrees,DateUTC
12:16 AM,42.8,39.2,87,29.66,10.0,ESE,27.6,34.5,N/A,,Partly Cloudy,120,2012-11-09 09:16:00
12:36 AM,44.6,39.2,81,29.64,10.0,ESE,31.1,38.0,N/A,,Mostly Cloudy,120,2012-11-09 09:36:00
12:56 AM,42.8,39.2,87,29.64,10.0,ESE,31.1,40.3,N/A,,Overcast,120,2012-11-09 09:56:00
1:16 AM,42.8,39.2,87,29.60,10.0,ESE,32.2,40.3,N/A,,Overcast,120,2012-11-09 10:16:00
1:36 AM,44.6,39.2,81,29.58,10.0,ESE,39.1,49.5,N/A,,Mostly Cloudy,120,2012-11-09 10:36:00
1:56 AM,42.8,39.2,87,29.58,10.0,ESE,35.7,43.7,N/A,,Scattered Clouds,120,2012-11-09 10:56:00
2:16 AM,42.8,39.2,87,29.58,10.0,ESE,29.9,42.6,N/A,,Scattered Clouds,120,2012-11-09 11:16:00
2:36 AM,42.8,39.2,87,29.56,10.0,ESE,36.8,42.6,N/A,,Mostly Cloudy,120,2012-11-09 11:36:00
2:56 AM,44.6,39.2,81,29.57,10.0,ESE,27.6,44.9,N/A,,Overcast,120,2012-11-09 11:56:00
3:16 AM,42.8,39.2,87,29.54,10.0,ESE,36.8,47.2,N/A,,Overcast,120,2012-11-09 12:16:00
3:36 AM,42.8,39.2,87,29.53,10.0,ESE,34.5,42.6,N/A,,Mostly Cloudy,120,2012-11-09 12:36:00
3:56 AM,42.8,39.2,87,29.52,10.0,ESE,38.0,47.2,N/A,,Scattered Clouds,120,2012-11-09 12:56:00
4:16 AM,42.8,39.2,87,29.51,10.0,ESE,36.8,50.6,N/A,,Partly Cloudy,120,2012-11-09 13:16:00
4:36 AM,44.6,39.2,81,29.53,10.0,ESE,34.5,42.6,N/A,,Scattered Clouds,120,2012-11-09 13:36:00
4:56 AM,44.6,39.2,81,29.54,10.0,ESE,27.6,36.8,N/A,,Overcast,120,2012-11-09 13:56:00
5:16 AM,44.6,39.2,81,29.52,10.0,ESE,28.8,42.6,N/A,,Overcast,120,2012-11-09 14:16:00
5:36 AM,42.8,39.2,87,29.51,8.0,ESE,32.2,43.7,N/A,,Overcast,120,2012-11-09 14:36:00
5:56 AM,42.8,39.2,87,29.51,10.0,ESE,29.9,42.6,N/A,,Overcast,120,2012-11-09 14:56:00
6:16 AM,42.8,41.0,93,29.50,10.0,ESE,34.5,47.2,N/A,,Overcast,120,2012-11-09 15:16:00
6:36 AM,42.8,41.0,93,29.50,10.0,ESE,31.1,41.4,N/A,,Overcast,120,2012-11-09 15:36:00
6:56 AM,42.8,41.0,93,29.48,10.0,ESE,33.4,43.7,N/A,,Mostly Cloudy,120,2012-11-09 15:56:00
7:16 AM,42.8,39.2,87,29.49,10.0,ESE,29.9,40.3,N/A,,Partly Cloudy,120,2012-11-09 16:16:00
7:36 AM,42.8,39.2,87,29.49,10.0,ESE,29.9,41.4,N/A,,Scattered Clouds,120,2012-11-09 16:36:00
7:56 AM,42.8,39.2,87,29.48,10.0,ESE,31.1,39.1,N/A,,Partly Cloudy,120,2012-11-09 16:56:00
8:16 AM,42.8,39.2,87,29.47,10.0,ESE,28.8,41.4,N/A,,Clear,120,2012-11-09 17:16:00
8:36 AM,42.8,39.2,87,29.47,10.0,ESE,33.4,42.6,N/A,,Clear,120,2012-11-09 17:36:00
8:56 AM,42.8,39.2,87,29.48,10.0,ESE,33.4,40.3,N/A,,Clear,120,2012-11-09 17:56:00
9:16 AM,42.8,39.2,87,29.48,10.0,ESE,31.1,36.8,N/A,,Clear,120,2012-11-09 18:16:00
9:36 AM,42.8,39.2,87,29.49,10.0,ESE,26.5,36.8,N/A,,Clear,120,2012-11-09 18:36:00
9:56 AM,42.8,39.2,87,29.49,10.0,ESE,29.9,38.0,N/A,,Clear,120,2012-11-09 18:56:00
10:16 AM,44.6,39.2,81,29.49,10.0,ESE,29.9,36.8,N/A,,Clear,120,2012-11-09 19:16:00
10:36 AM,42.8,39.2,87,29.49,10.0,ESE,28.8,38.0,N/A,,Clear,120,2012-11-09 19:36:00
10:56 AM,44.6,41.0,87,29.49,10.0,ESE,27.6,38.0,N/A,,Partly Cloudy,120,2012-11-09 19:56:00
11:16 AM,44.6,41.0,87,29.48,10.0,ESE,29.9,38.0,N/A,,Partly Cloudy,120,2012-11-09 20:16:00
11:36 AM,44.6,41.0,87,29.48,10.0,SE,28.8,35.7,N/A,,Clear,130,2012-11-09 20:36:00
11:56 AM,44.6,41.0,87,29.47,10.0,SE,33.4,42.6,N/A,,Clear,130,2012-11-09 20:56:00
12:16 PM,44.6,41.0,87,29.48,10.0,ESE,27.6,38.0,N/A,,Clear,120,2012-11-09 21:16:00
12:36 PM,44.6,41.0,87,29.48,10.0,ESE,27.6,35.7,N/A,,Partly Cloudy,120,2012-11-09 21:36:00
12:56 PM,46.4,41.0,81,29.47,10.0,SE,27.6,36.8,N/A,,Mostly Cloudy,130,2012-11-09 21:56:00
1:16 PM,44.6,41.0,87,29.47,10.0,SE,28.8,35.7,N/A,,Mostly Cloudy,130,2012-11-09 22:16:00
1:36 PM,44.6,41.0,87,29.47,10.0,SE,25.3,31.1,N/A,,Scattered Clouds,130,2012-11-09 22:36:00
1:56 PM,44.6,41.0,87,29.46,10.0,SE,25.3,33.4,N/A,,Scattered Clouds,130,2012-11-09 22:56:00
2:16 PM,44.6,41.0,87,29.45,10.0,SE,26.5,32.2,N/A,,Mostly Cloudy,130,2012-11-09 23:16:00
2:36 PM,44.6,39.2,81,29.44,10.0,ESE,21.9,28.8,N/A,,Mostly Cloudy,120,2012-11-09 23:36:00
2:56 PM,42.8,39.2,87,29.44,10.0,ESE,21.9,29.9,N/A,,Overcast,120,2012-11-09 23:56:00
3:16 PM,42.8,39.2,87,29.44,10.0,ESE,20.7,26.5,N/A,,Mostly Cloudy,120,2012-11-10 00:16:00
3:36 PM,42.8,39.2,87,29.44,10.0,ESE,20.7,27.6,N/A,,Scattered Clouds,120,2012-11-10 00:36:00
3:56 PM,42.8,39.2,87,29.43,10.0,ESE,21.9,28.8,N/A,,Mostly Cloudy,120,2012-11-10 00:56:00
4:16 PM,42.8,39.2,87,29.42,10.0,ESE,18.4,25.3,N/A,,Mostly Cloudy,120,2012-11-10 01:16:00
4:36 PM,42.8,39.2,87,29.42,10.0,ESE,18.4,23.0,N/A,,Overcast,120,2012-11-10 01:36:00
4:56 PM,42.8,39.2,87,29.42,10.0,ESE,20.7,27.6,N/A,,Overcast,120,2012-11-10 01:56:00
5:16 PM,44.6,39.2,81,29.42,10.0,ESE,19.6,26.5,N/A,,Overcast,120,2012-11-10 02:16:00
5:36 PM,44.6,39.2,81,29.42,10.0,ESE,19.6,29.9,N/A,,Overcast,110,2012-11-10 02:36:00
5:56 PM,42.8,39.2,87,29.42,10.0,ESE,18.4,25.3,N/A,,Overcast,120,2012-11-10 02:56:00
6:16 PM,42.8,39.2,87,29.41,10.0,ESE,20.7,26.5,N/A,,Overcast,120,2012-11-10 03:16:00
6:36 PM,42.8,39.2,87,29.42,10.0,ESE,17.3,21.9,N/A,,Overcast,120,2012-11-10 03:36:00
6:56 PM,42.8,39.2,87,29.42,10.0,ESE,16.1,23.0,N/A,,Overcast,120,2012-11-10 03:56:00
7:16 PM,42.8,39.2,87,29.42,10.0,ESE,15.0,-,N/A,,Overcast,110,2012-11-10 04:16:00
7:36 PM,42.8,39.2,87,29.42,10.0,East,13.8,19.6,N/A,,Overcast,100,2012-11-10 04:36:00
7:56 PM,42.8,39.2,87,29.42,10.0,ESE,15.0,19.6,N/A,,Overcast,110,2012-11-10 04:56:00
8:16 PM,42.8,39.2,87,29.42,10.0,ESE,16.1,20.7,N/A,,Overcast,110,2012-11-10 05:16:00
8:36 PM,42.8,39.2,87,29.42,10.0,ESE,15.0,-,N/A,,Overcast,110,2012-11-10 05:36:00
8:56 PM,42.8,39.2,87,29.42,10.0,East,13.8,19.6,N/A,,Overcast,100,2012-11-10 05:56:00
9:16 PM,41.0,37.4,87,29.43,10.0,East,11.5,-,N/A,,Overcast,90,2012-11-10 06:16:00
9:36 PM,42.8,39.2,87,29.43,10.0,East,13.8,-,N/A,,Overcast,100,2012-11-10 06:36:00
9:56 PM,41.0,37.4,87,29.43,10.0,East,10.4,-,N/A,,Overcast,90,2012-11-10 06:56:00
10:16 PM,39.2,37.4,93,29.43,10.0,East,10.4,-,N/A,,Overcast,80,2012-11-10 07:16:00
10:36 PM,41.0,37.4,87,29.43,10.0,East,10.4,-,N/A,,Overcast,80,2012-11-10 07:36:00
10:56 PM,39.2,37.4,93,29.43,10.0,ENE,9.2,-,N/A,,Overcast,70,2012-11-10 07:56:00
11:16 PM,39.2,37.4,93,29.44,10.0,ENE,6.9,-,N/A,,Overcast,60,2012-11-10 08:16:00
11:36 PM,39.2,37.4,93,29.43,10.0,ENE,8.1,-,N/A,,Overcast,70,2012-11-10 08:36:00
11:56 PM,39.2,37.4,93,29.43,10.0,ENE,8.1,-,N/A,,Overcast,70,2012-11-10 08:56:00